EW7512 Athens GR current weather conditions

sailwx.info

Wind from 334

Air temperature 20.0° C
Dewpoint 16.0° C

Last reported at 2020-Jun-06 18:00 UTC.
Time now 2020-Jun-06 22:27 UTC

Location: N 38°09' E 023°52'.
View on Google Maps.

See reports from other nearby stations

  
Tides and Currents Weather Stations Pressure Air Temp Water Temp Dewpoint Dewpoint Depression Visibility Wind Speed Wind Dir Waves Ship Positions
date/time (UTC)wind fromknots sea level pressurealtimeterstation pressurevisibilityair tempwater tempwave heightnotes
2020-Jun-06 18:00 334 20.0
2020-Jun-06 17:45 343 21.1
2020-Jun-06 17:30 163 21.1
2020-Jun-06 17:15 163 21.7
2020-Jun-06 17:00 157 22.2
2020-Jun-06 16:45 138 22.2
2020-Jun-06 16:30 246 0 gusting 2 22.2
2020-Jun-06 16:15 135 0 gusting 7 22.2
2020-Jun-06 16:00 130 1 gusting 4 22.8
2020-Jun-06 15:45 169 1 gusting 5 22.8
2020-Jun-06 15:30 130 22.8
2020-Jun-06 15:15 053 22.8
2020-Jun-06 15:00 045 22.2
2020-Jun-06 14:46 160 2 gusting 6 22.2
2020-Jun-06 14:32 095 2 gusting 7 22.8
2020-Jun-06 14:17 103 1 gusting 12 23.3
2020-Jun-06 14:04 180 3 gusting 7 23.3
2020-Jun-06 13:48 175 2 gusting 7 22.8
2020-Jun-06 13:32 078 3 gusting 9 22.8
2020-Jun-06 13:16 107 3 gusting 7 22.8
2020-Jun-06 13:01 115 4 gusting 8 22.8
2020-Jun-06 12:01 017 2 gusting 10 25.0
2020-Jun-06 11:46 087 0 gusting 4 26.1
2020-Jun-06 11:31 065 0 gusting 6 26.1
2020-Jun-06 11:15 072 0 gusting 6 25.6
2020-Jun-06 11:01 284 2 gusting 6 25.0
2020-Jun-06 10:46 115 0 gusting 7 24.4
2020-Jun-06 10:31 042 0 gusting 6 24.4
2020-Jun-06 10:15 154 0 gusting 5 24.4
2020-Jun-06 10:00 105 1 gusting 5 23.3
2020-Jun-06 09:45 141 0 gusting 3 22.8
2020-Jun-06 09:31 012 22.2
2020-Jun-06 09:15 133 3 gusting 8 22.2
2020-Jun-06 09:00 084 3 gusting 12 22.2
2020-Jun-06 08:45 098 2 gusting 6 23.9
2020-Jun-06 08:30 131 0 gusting 6 23.3
2020-Jun-06 08:15 071 1 gusting 8 23.9
2020-Jun-06 08:00 169 3 gusting 11 23.3
2020-Jun-06 07:45 268 3 gusting 12 23.9
2020-Jun-06 07:30 121 1 gusting 7 24.4
2020-Jun-06 07:15 096 1 gusting 8 23.3
2020-Jun-06 07:00 182 3 gusting 6 23.9
2020-Jun-06 06:45 126 0 gusting 3 22.8
2020-Jun-06 06:30 028 1 gusting 5 22.8
2020-Jun-06 06:17 163 1 gusting 8 22.2
2020-Jun-06 06:01 145 2 gusting 6 21.7
2020-Jun-06 05:47 051 20.0
2020-Jun-06 05:31 090 0 gusting 4 18.9
2020-Jun-06 05:16 140 0 gusting 5 18.3
2020-Jun-06 05:00 126 1 gusting 6 17.8
2020-Jun-06 04:46 110 1 gusting 3 17.2
2020-Jun-06 04:31 079 0 gusting 2 17.2
2020-Jun-06 04:15 123 0 gusting 3 16.7
2020-Jun-06 04:01 082 0 gusting 3 16.7
2020-Jun-06 03:45 130 1 gusting 6 16.7
2020-Jun-06 03:30 078 2 gusting 6 16.7
2020-Jun-06 03:16 132 1 gusting 7 16.1
2020-Jun-06 03:00 123 16.1
2020-Jun-06 02:45 096 1 gusting 3 16.7
2020-Jun-06 02:31 106 1 gusting 3 16.7
2020-Jun-06 02:15 142 16.7
2020-Jun-06 02:00 132 1 gusting 6 16.7
2020-Jun-06 01:46 131 1 gusting 5 16.7
2020-Jun-06 01:30 106 1 gusting 8 17.2
2020-Jun-06 01:15 072 2 gusting 5 17.2
2020-Jun-06 01:00 142 3 gusting 7 17.2
2020-Jun-05 23:30 106 2 gusting 6 17.2
2020-Jun-05 23:16 105 2 gusting 6 17.2
2020-Jun-05 23:01 125 1 gusting 6 17.2
2020-Jun-05 22:45 060 2 gusting 5 17.2
2020-Jun-05 22:32 148 0 gusting 4 17.2
2020-Jun-05 22:15 164 0 gusting 2 17.8
2020-Jun-05 22:00 051 17.8
2020-Jun-05 21:45 332 0 gusting 2 17.8
2020-Jun-05 21:30 200 18.3
2020-Jun-05 21:16 151 3 gusting 9 18.3
2020-Jun-05 21:00 102 4 gusting 9 18.3
2020-Jun-05 20:45 246 1 gusting 3 18.9
2020-Jun-05 20:30 164 18.9
2020-Jun-05 20:15 219 0 gusting 2 18.9
2020-Jun-05 20:00 117 0 gusting 3 18.9
2020-Jun-05 19:45 196 3 gusting 9 18.9
2020-Jun-05 19:30 119 18.9
2020-Jun-05 19:15 152 1 gusting 3 18.9
2020-Jun-05 19:00 157 0 gusting 6 19.4
2020-Jun-05 18:45 169 1 gusting 7 19.4
2020-Jun-05 18:30 180 3 gusting 7 19.4
2020-Jun-05 18:15 154 4 gusting 11 19.4
2020-Jun-05 18:00 141 2 gusting 10 20.0
2020-Jun-05 17:45 167 5 gusting 12 20.0
2020-Jun-05 17:30 136 2 gusting 7 20.0
2020-Jun-05 17:15 157 2 gusting 8 20.6
2020-Jun-05 17:00 145 2 gusting 10 21.1
2020-Jun-05 16:45 174 3 gusting 7 21.7
2020-Jun-05 16:30 150 2 gusting 10 22.2
2020-Jun-05 16:15 130 3 gusting 6 22.8
2020-Jun-05 16:00 116 3 gusting 13 22.8
2020-Jun-05 15:45 110 3 gusting 11 23.3
2020-Jun-05 15:30 165 3 gusting 8 23.3
2020-Jun-05 15:15 151 2 gusting 12 23.9
2020-Jun-05 15:01 188 3 gusting 13 23.9
2020-Jun-05 14:46 128 2 gusting 10 23.9
2020-Jun-05 14:32 171 4 gusting 9 24.4
2020-Jun-05 14:16 125 5 gusting 8 24.4
2020-Jun-05 14:02 117 2 gusting 7 25.0
2020-Jun-05 13:46 128 3 gusting 13 24.4
2020-Jun-05 13:31 146 4 gusting 16 24.4
2020-Jun-05 13:16 145 3 gusting 12 25.0
2020-Jun-05 13:01 170 4 gusting 13 25.0
2020-Jun-05 12:46 182 4 gusting 13 25.0
2020-Jun-05 12:31 136 4 gusting 13 25.0
2020-Jun-05 12:16 167 2 gusting 8 25.0
2020-Jun-05 12:01 107 3 gusting 13 25.6
2020-Jun-05 11:46 115 4 gusting 12 25.6
2020-Jun-05 11:31 181 0 gusting 7 26.1
2020-Jun-05 11:17 072 1 gusting 5 26.1
2020-Jun-05 11:01 102 0 gusting 9 26.1
2020-Jun-05 10:46 328 1 gusting 6 26.1
2020-Jun-05 10:30 094 1 gusting 6 25.6
2020-Jun-05 10:15 178 1 gusting 4 26.1
2020-Jun-05 10:00 063 3 gusting 6 25.6
2020-Jun-05 09:46 086 0 gusting 8 25.0
2020-Jun-05 09:30 036 1 gusting 6 25.6
2020-Jun-05 09:16 085 0 gusting 6 25.6
2020-Jun-05 09:00 064 1 gusting 4 25.0
2020-Jun-05 08:45 117 1 gusting 5 25.0
2020-Jun-05 08:30 005 0 gusting 6 25.0
2020-Jun-05 08:15 065 23.9
2020-Jun-05 08:00 122 2 gusting 6 23.9
2020-Jun-05 07:45 167 2 gusting 7 23.9
2020-Jun-05 07:30 045 1 gusting 8 23.3
2020-Jun-05 07:15 010 1 gusting 7 23.9
2020-Jun-05 07:00 055 0 gusting 3 23.3
2020-Jun-05 06:47 053 0 gusting 2 22.8
2020-Jun-05 06:31 059 21.7
2020-Jun-05 06:16 117 21.1
2020-Jun-05 06:01 185 1 gusting 5 20.6
2020-Jun-05 05:46 005 0 gusting 4 19.4
2020-Jun-05 05:32 012 18.3
2020-Jun-05 05:16 085 16.7
2020-Jun-05 05:02 100 16.1
2020-Jun-05 04:45 100 15.0
2020-Jun-05 04:31 102 14.4
2020-Jun-05 04:16 103 13.9
2020-Jun-05 04:01 100 13.3
2020-Jun-05 03:45 100 13.3
2020-Jun-05 03:30 079 13.3
2020-Jun-05 03:15 061 13.3
2020-Jun-05 03:01 061 13.3
2020-Jun-05 02:45 062 13.3
2020-Jun-05 02:30 062 13.3
2020-Jun-05 02:15 061 13.3
2020-Jun-05 02:00 061 13.3
2020-Jun-05 01:45 061 13.3
2020-Jun-05 01:31 080 13.3
2020-Jun-05 01:15 211 13.9
2020-Jun-05 01:00 211 13.9
2020-Jun-05 00:45 211 14.4
2020-Jun-05 00:30 221 14.4
2020-Jun-05 00:16 195 14.4
2020-Jun-05 00:02 194 14.4
2020-Jun-04 23:49 148 14.4
2020-Jun-04 23:32 149 14.4
2020-Jun-04 23:16 148 15.0
2020-Jun-04 23:03 146 15.0
2020-Jun-04 22:46 147 15.6
2020-Jun-04 22:31 147 15.6
2020-Jun-04 22:16 149 15.6
2020-Jun-04 22:01 172 15.6